Probability
0 0 0 0 0 0 0 0 0 0 0 0 0 0 0 0 0 1 0 1 2 3 2 2 2 2 2 1 1 3 4 2 1 0 0 0 0 0 0 0 0 0 0 0 0 0 0 0 0
0 0 0 0 0 0 0 0 0 0 0 0 0 0 0 0 1 1 1 0 1 3 3 2 2 2 1 1 2 4 4 3 1 0 0 0 0 0 0 0 0 0 0 0 0 0 0 0 0
0 0 0 0 0 0 0 0 0 0 0 0 0 0 0 0 1 1 1 1 2 3 3 3 3 3 1 1 4 6 5 3 1 0 0 0 0 0 0 0 0 0 0 0 0 0 0 0 0
0 0 0 0 0 0 0 0 0 0 0 0 0 0 0 0 1 2 3 2 3 4 4 5 6 6 4 4 6 6 5 3 1 0 0 0 0 0 0 0 0 0 0 0 0 0 0 0 0
0 0 0 0 0 0 0 0 0 0 0 0 0 0 1 1 3 4 5 3 3 3 5 8 9 8 6 6 7 6 5 3 1 0 0 0 0 0 0 0 0 0 0 0 0 0 0 0 0
0 0 0 0 0 0 0 0 0 0 0 0 0 1 3 4 6 8 7 4 2 3 7 10 10 8 7 7 7 7 6 4 2 1 1 0 0 0 0 0 0 0 0 0 0 0 0 0 0
0 0 0 0 0 0 0 0 0 0 0 0 0 2 6 9 10 11 10 6 4 5 9 12 11 9 7 6 7 8 7 4 3 2 1 0 0 0 0 0 0 0 0 0 0 0 0 0 0
0 0 0 0 0 0 0 0 0 0 1 1 1 3 9 16 19 19 15 12 9 10 12 14 13 12 10 6 6 7 7 4 2 2 1 0 0 1 0 0 0 0 0 0 0 0 0 0 0
0 0 0 0 0 0 0 0 0 0 2 3 5 8 18 30 36 34 27 21 18 16 16 15 16 16 13 9 6 5 4 3 1 1 0 0 0 1 1 1 0 0 0 0 0 0 0 0 0
0 0 0 0 0 0 0 0 0 0 2 5 9 17 32 47 55 50 41 34 30 25 20 17 18 19 18 14 10 6 3 2 1 0 0 0 0 1 2 2 1 0 0 0 0 0 0 0 0
0 0 0 0 0 0 0 0 0 0 2 5 13 26 44 59 64 59 49 42 38 33 26 22 24 25 25 22 16 12 8 4 2 0 0 1 1 1 2 2 1 0 0 0 0 0 0 0 0
0 0 0 0 0 0 0 0 0 1 4 8 17 33 50 61 63 58 49 43 41 37 33 31 32 33 33 31 25 20 14 9 5 3 1 1 2 1 1 1 1 0 0 0 0 0 0 0 0
0 0 0 0 0 0 0 0 1 3 6 11 20 35 50 58 56 52 49 45 42 40 39 40 40 39 41 42 36 27 20 14 10 6 2 1 1 1 0 1 1 0 0 0 0 0 0 0 0
0 0 0 0 0 0 0 0 1 3 6 10 18 31 45 53 51 49 49 48 44 42 44 47 46 44 46 47 42 31 23 17 12 7 3 0 0 0 0 0 1 0 0 0 0 0 0 0 0
0 0 0 0 0 0 0 0 2 5 6 8 15 27 41 48 47 46 47 46 42 42 46 47 44 44 46 47 42 33 23 15 11 8 3 0 0 0 0 0 0 0 0 0 0 0 0 0 0
0 0 0 0 0 0 0 1 5 7 7 9 16 26 38 44 43 40 40 39 38 40 44 40 36 38 42 44 42 34 24 15 12 10 5 2 0 0 0 0 0 0 0 0 0 0 0 0 0
0 0 0 0 0 0 0 2 6 8 8 10 18 27 34 38 37 35 34 34 33 34 36 32 28 32 39 44 44 38 29 20 15 11 7 3 0 0 0 0 0 0 0 0 0 0 0 0 0
0 0 0 0 0 0 0 2 6 8 7 9 17 27 31 32 32 32 31 29 27 27 28 24 23 29 37 41 43 39 31 22 14 9 6 2 0 0 0 0 0 0 0 0 0 0 0 0 0
0 0 0 0 0 0 0 1 4 6 5 8 16 25 28 27 27 27 26 23 22 22 21 19 19 25 31 35 37 35 29 21 14 8 4 2 0 0 0 0 0 0 0 0 0 0 0 0 0
0 0 0 0 0 0 0 1 2 2 2 6 15 21 23 22 22 22 21 19 19 18 17 16 17 20 23 27 32 32 27 21 15 9 6 3 0 0 0 0 0 0 0 0 0 0 0 0 0
0 0 0 0 0 0 0 1 3 2 0 3 11 17 17 14 16 18 17 15 15 15 15 15 16 18 20 24 28 28 25 22 17 11 8 4 1 0 0 0 0 0 0 0 0 0 0 0 0
0 0 0 0 0 0 0 1 3 2 1 2 7 12 11 9 11 14 14 11 10 12 14 16 17 21 24 25 25 22 20 19 16 13 9 4 1 0 0 0 0 0 0 0 0 0 0 0 0
0 0 0 0 0 0 0 0 1 2 1 1 4 7 7 6 9 12 12 9 8 9 11 15 19 24 28 27 22 17 14 14 15 13 10 6 3 1 0 0 0 0 0 0 0 0 0 0 0
0 0 0 0 0 0 0 0 0 0 0 1 2 3 4 5 7 10 9 8 7 7 8 12 17 22 27 24 17 12 11 11 12 11 9 7 5 2 1 0 0 0 0 0 0 0 0 0 0
0 0 0 0 0 0 0 0 0 0 0 0 0 1 3 4 6 8 8 7 7 7 8 10 12 17 20 18 12 9 8 9 9 7 6 5 5 3 1 1 1 1 0 0 0 0 0 1 1
0 0 0 0 0 0 0 0 0 0 0 0 1 1 2 3 5 7 8 6 6 6 7 7 9 11 12 12 10 8 7 6 5 4 4 4 3 2 2 2 1 1 0 0 1 1 1 2 2
0 0 0 0 0 0 0 0 0 0 0 0 1 2 3 4 5 6 8 7 5 5 4 4 6 7 8 8 9 8 6 5 4 4 4 4 4 3 2 2 2 2 1 1 3 4 4 3 3
0 0 0 0 0 0 0 0 0 0 0 0 1 2 4 5 6 6 7 7 6 4 3 3 5 7 8 8 8 7 5 4 4 4 4 4 6 5 2 1 2 3 3 3 5 6 5 4 3
0 0 0 0 0 0 0 0 0 1 1 1 2 3 4 6 7 6 6 6 6 5 4 4 4 5 7 8 9 8 5 3 3 4 4 5 7 6 4 2 3 4 4 4 5 6 5 4 3
0 0 0 0 0 0 0 0 1 2 2 2 3 3 4 6 8 7 5 4 4 4 5 5 4 4 6 8 9 9 5 2 1 2 4 7 8 7 5 4 4 4 4 4 4 4 4 4 3
Wind_Speed
10 8 5 5 7 4 3 4 2 2 2 2 2 0 1 2 3 5 6 16 19 19 20 19 16 16 15 15 14 15 15 15 15 14 13 13 12 12 11 11 11 11 12 12 12 12 12 12 12
6 5 6 6 6 2 5 2 1 3 3 3 3 2 1 2 5 6 9 17 20 20 19 18 18 16 16 15 15 15 15 15 14 14 13 13 12 12 12 11 11 12 12 12 12 12 12 12 11
5 7 7 6 3 1 4 3 2 2 3 3 3 1 2 4 5 6 11 19 19 18 18 18 19 17 16 15 15 15 15 14 14 14 13 12 12 12 12 12 12 12 12 12 12 12 11 10 10
6 6 7 7 2 2 2 1 1 3 4 3 2 3 4 5 3 7 16 20 20 18 18 20 19 17 17 16 15 15 14 14 14 13 12 12 12 12 12 12 12 12 11 11 11 11 10 9 9
7 6 8 6 2 1 2 3 2 4 3 3 4 2 5 4 5 12 18 19 19 18 17 20 19 18 17 16 15 15 14 14 13 13 12 12 12 11 11 11 11 11 11 10 10 9 9 8 7
6 6 7 3 4 1 1 1 4 4 3 3 3 2 5 5 9 15 18 18 18 17 18 19 18 18 17 16 15 15 14 14 13 13 12 12 11 11 11 11 11 11 11 10 9 8 7 6 6
8 7 5 1 2 2 2 0 3 3 4 4 3 2 7 8 11 15 17 16 17 16 16 17 17 17 17 16 15 15 14 13 13 12 12 12 11 11 11 10 10 10 10 8 7 7 6 6 6
6 6 6 4 2 2 2 0 1 3 2 1 4 4 6 11 13 15 15 15 15 15 16 16 16 15 15 15 15 14 14 13 13 12 12 12 11 11 10 10 10 9 9 8 7 6 6 6 6
7 8 5 2 1 2 1 2 1 2 3 4 3 1 8 16 16 16 15 15 15 15 14 15 15 14 13 14 15 14 13 12 12 11 12 11 9 10 9 10 10 9 8 7 7 6 5 4 7
8 8 1 2 4 4 3 4 3 5 7 7 6 6 12 17 18 18 18 18 17 16 15 13 14 13 12 11 12 10 10 10 9 8 9 7 6 5 7 11 8 8 7 7 6 5 5 5 4
7 7 3 4 5 7 6 6 5 8 7 6 7 10 15 17 17 17 18 18 17 16 15 13 13 12 12 9 9 7 6 7 7 9 8 6 6 5 5 5 7 6 7 5 6 5 2 1 2
8 8 7 8 7 8 8 6 6 8 6 2 2 9 16 17 17 17 17 17 16 16 15 13 13 11 10 9 8 7 7 6 6 8 8 6 4 4 4 3 4 4 3 3 2 2 2 1 2
10 8 7 9 9 8 8 8 7 7 4 1 4 10 15 16 16 15 14 15 15 15 15 13 13 12 10 8 7 8 8 7 7 7 7 6 5 4 4 3 2 3 3 4 3 2 2 2 3
6 9 10 10 7 5 7 7 6 5 3 4 6 10 13 14 15 14 14 14 15 15 15 14 13 12 11 9 7 7 7 6 7 7 7 7 5 4 4 4 3 3 2 2 2 3 3 2 1
8 10 10 6 5 3 6 9 7 3 3 6 7 8 10 11 12 13 13 13 14 14 14 15 14 12 11 10 10 7 7 8 7 6 7 6 5 5 4 4 4 3 2 3 2 3 2 3 3
9 11 9 4 3 3 8 7 3 2 5 6 7 8 9 10 12 11 12 12 12 12 13 13 12 13 12 10 9 7 7 8 6 6 6 7 6 5 4 4 3 3 3 3 3 3 3 3 2
11 10 7 3 3 3 8 7 2 2 5 6 7 8 9 10 11 11 11 12 11 11 12 13 12 13 12 11 8 7 6 6 6 6 6 7 7 6 5 3 2 4 3 3 3 3 2 2 2
7 7 6 5 1 5 8 7 1 3 6 7 7 7 8 9 10 10 10 11 11 10 11 13 13 13 12 9 8 6 7 6 6 6 6 7 6 6 5 4 4 4 3 3 2 3 2 2 2
7 8 9 5 3 6 7 7 3 4 6 7 7 7 8 9 9 9 10 10 10 11 11 13 13 13 11 9 9 9 8 7 6 6 7 7 7 6 5 4 4 4 4 4 5 4 5 3 2
10 11 9 5 1 6 7 8 4 4 6 6 7 7 8 8 9 9 10 10 11 11 12 14 15 14 13 10 8 8 8 7 6 6 6 7 7 6 6 5 5 5 4 4 4 4 3 3 3
12 11 8 7 6 6 8 8 5 5 5 6 7 7 7 8 9 10 11 11 11 12 13 12 15 15 14 13 9 8 7 6 6 7 6 7 7 7 5 6 5 4 5 4 5 5 5 4 4
11 8 8 9 10 6 4 9 2 4 5 7 7 7 8 8 8 9 10 11 11 11 11 12 13 14 14 13 11 13 10 9 8 7 6 7 7 7 7 6 6 5 4 4 6 5 4 4 4
9 5 7 9 9 10 7 9 3 3 4 5 6 7 7 7 7 8 10 10 11 11 10 11 12 13 13 13 13 12 10 8 7 7 8 7 7 7 7 7 6 5 4 4 4 4 5 4 4
7 7 8 9 10 11 5 8 5 0 1 2 4 6 6 7 7 8 9 10 10 11 11 11 12 13 13 13 13 12 11 10 10 9 8 7 6 6 8 7 6 6 5 5 5 5 6 4 3
11 10 8 9 8 7 1 6 4 3 1 1 3 5 6 7 7 8 9 10 11 12 12 12 12 12 12 13 12 12 11 11 11 10 9 8 7 7 8 8 7 6 6 6 5 5 5 5 5
11 13 10 8 7 5 4 6 2 2 2 2 4 5 6 7 7 8 9 10 11 12 12 12 13 13 13 13 12 11 11 8 8 9 8 8 7 7 8 9 8 8 7 7 6 6 6 5 5
10 11 11 11 11 10 6 4 3 3 4 5 6 7 7 7 8 8 9 10 11 12 12 12 13 13 13 13 12 11 11 10 9 9 9 7 7 7 9 9 9 8 8 8 7 6 6 5 6
10 8 7 10 10 10 8 6 3 2 3 6 7 7 7 8 8 9 9 10 10 11 11 12 12 12 12 12 11 10 10 11 10 9 10 8 8 8 9 9 9 9 9 9 8 7 7 7 6
9 10 10 9 9 10 10 4 3 1 2 5 6 7 8 8 8 8 8 9 10 10 11 11 11 11 11 11 11 10 11 11 10 9 10 9 9 9 10 10 9 9 9 9 9 9 8 9 8
9 11 11 10 10 10 11 5 4 2 2 4 6 7 7 7 8 8 9 10 10 10 10 11 11 11 11 11 10 10 10 10 10 10 10 10 10 10 10 10 10 10 10 9 10 10 10 10 9
Wind_Direction
196 209 233 244 240 225 84 83 61 93 86 75 109 217 327 6 349 52 108 151 148 148 144 152 154 150 146 142 139 137 135 135 134 134 134 133 130 127 123 118 113 110 108 106 104 103 101 100 101
201 215 235 241 256 158 103 86 110 58 71 115 150 206 272 76 53 93 139 149 151 148 148 153 151 152 148 144 142 141 139 138 136 136 135 133 130 127 122 117 113 110 108 106 105 103 102 101 101
210 236 259 251 250 21 80 86 72 105 145 173 161 183 1 54 100 130 145 152 152 148 148 145 153 152 149 146 144 143 142 140 139 138 136 132 129 125 121 116 113 110 108 107 105 104 103 103 103
219 225 237 249 219 67 351 37 107 173 165 191 191 133 97 55 96 136 148 155 152 150 151 145 156 152 150 148 146 144 143 141 139 138 134 131 127 124 121 119 115 111 108 106 105 104 102 102 103
240 251 239 224 176 112 266 301 249 217 178 181 208 133 105 85 112 140 152 157 155 155 151 147 156 153 152 151 149 147 145 142 138 136 132 128 124 120 119 117 113 111 109 107 105 103 100 98 103
233 243 244 204 121 128 227 257 228 228 194 181 211 203 98 113 139 148 156 160 158 156 152 146 155 155 154 153 151 149 147 143 139 135 132 128 125 121 119 117 114 111 109 106 104 101 97 92 96
260 256 255 234 131 141 60 323 233 231 217 199 211 200 119 140 145 153 157 161 160 158 151 151 157 157 156 155 153 151 148 144 141 137 133 129 127 125 122 119 118 114 110 107 104 100 92 89 97
272 263 227 199 205 108 77 265 258 252 226 157 211 228 139 147 151 154 157 163 164 162 157 157 160 158 160 158 156 154 150 146 143 141 139 135 132 131 130 135 120 118 115 112 106 98 91 89 99
251 248 220 171 244 60 48 282 188 234 188 178 205 349 105 142 153 156 161 166 169 169 164 165 159 161 164 159 153 157 153 148 150 149 146 159 156 143 153 118 122 123 120 116 108 101 100 118 123
236 248 222 7 316 320 314 284 249 218 209 199 182 133 133 149 161 167 170 172 174 174 172 168 163 162 165 158 155 163 161 156 168 154 160 163 136 137 126 120 129 126 126 127 117 117 159 214 146
233 260 306 291 292 303 288 271 241 247 242 228 204 167 158 163 170 177 179 179 177 175 175 170 165 165 167 159 162 163 157 155 162 157 161 147 150 147 144 148 148 149 158 155 142 178 189 146 85
242 256 272 280 294 288 287 276 252 251 273 337 209 165 167 175 179 184 184 182 178 179 177 174 167 169 172 165 162 163 159 162 162 157 169 157 159 156 148 156 152 162 154 141 160 164 140 127 137
236 262 272 274 275 281 276 263 263 261 253 219 157 165 177 183 186 187 185 183 180 181 179 174 170 170 173 167 170 168 165 166 158 158 166 166 164 162 150 150 160 171 152 163 175 172 151 181 178
255 268 274 274 277 259 259 256 241 245 229 194 174 177 184 188 185 183 184 188 185 183 177 172 170 173 173 171 173 168 166 163 161 164 163 174 168 158 161 167 172 169 172 151 180 160 173 181 157
266 265 254 238 245 237 261 240 220 224 209 201 189 185 185 188 185 186 186 189 185 182 178 175 173 175 176 175 176 173 169 165 167 162 163 172 171 163 174 169 177 163 156 160 183 171 175 173 170
240 245 238 180 230 216 257 266 129 188 208 204 194 187 188 186 189 188 184 189 186 179 177 176 176 175 177 176 177 172 174 165 164 162 167 174 170 174 186 179 176 161 179 179 175 196 184 175 176
222 235 246 207 191 252 259 284 97 199 213 206 197 192 191 186 192 189 188 188 186 184 178 175 178 176 177 174 174 172 166 165 165 168 173 170 175 180 193 188 159 184 187 188 202 169 204 177 178
228 248 250 261 256 277 269 281 241 207 222 216 202 195 193 195 195 189 189 187 183 184 180 178 181 177 176 172 170 166 166 168 173 174 171 170 176 181 189 181 180 201 190 187 186 158 188 197 201
277 273 272 282 317 286 282 289 269 213 224 222 211 202 198 202 192 184 186 187 183 184 181 180 181 178 177 175 175 172 173 172 172 175 171 177 180 177 189 186 180 206 195 193 185 188 179 195 190
252 259 262 260 285 288 294 286 260 224 226 226 218 208 205 200 190 186 185 185 186 185 184 184 184 181 181 180 176 175 170 171 169 172 170 181 183 182 184 190 193 194 188 192 197 211 219 183 197
243 252 270 291 296 243 279 261 201 192 207 212 217 215 209 203 198 192 191 190 188 187 187 187 184 180 182 176 169 164 160 165 168 173 175 182 184 187 187 190 203 193 209 190 200 203 217 207 191
242 247 268 277 279 277 287 292 230 183 205 206 206 206 206 201 200 193 188 188 189 189 188 185 181 180 180 175 177 174 176 175 177 177 174 177 184 187 188 193 196 203 210 188 205 197 210 219 205
250 265 263 270 273 277 251 275 284 182 234 207 197 202 203 197 193 191 187 186 186 184 182 180 176 178 177 180 182 182 180 176 170 173 172 182 182 192 194 193 194 197 205 200 214 188 221 219 232
233 232 240 247 254 257 271 281 289 293 294 184 172 185 191 190 187 184 182 180 181 180 178 175 176 179 177 180 183 185 180 173 171 177 176 185 184 191 194 196 197 201 199 193 203 207 209 234 242
218 233 237 233 233 252 202 269 296 16 24 199 169 169 175 179 179 176 176 177 178 177 177 177 176 178 177 179 182 185 182 177 179 182 185 190 191 194 190 197 199 201 199 200 205 209 220 215 217
217 237 251 264 269 270 199 259 320 69 96 151 160 157 166 172 173 174 174 176 177 177 177 178 180 179 178 180 183 185 184 184 186 191 191 194 201 200 188 198 201 204 204 204 203 215 210 212 220
222 232 256 267 270 274 267 258 230 173 169 165 164 162 161 166 169 171 172 175 174 176 178 177 177 177 179 182 182 185 189 194 192 190 199 201 204 199 194 201 202 204 206 209 208 220 217 213 222
254 252 237 252 262 268 266 260 270 195 179 164 168 166 158 160 165 169 171 171 170 173 174 176 178 178 181 182 185 187 192 197 196 196 202 206 202 202 198 202 204 206 208 209 215 216 213 218 223
205 223 239 253 262 271 277 280 54 19 191 178 169 169 165 161 162 164 168 167 165 166 169 175 178 180 185 187 188 188 192 195 196 200 204 206 202 200 203 204 206 209 212 212 214 223 211 219 221
250 245 237 247 251 254 273 282 79 60 162 171 163 159 161 158 159 161 163 163 166 169 169 173 173 178 182 182 183 188 191 193 197 201 205 204 202 202 205 207 209 213 214 213 217 222 219 220 223